sat.trackr.live / text

‹ back to catalog

STARLINK-3907

NORAD 52501 · 2022-049BC

PAYLOAD ACTIVE UNKNOWN

§ Identity

Operator
Country
US
Launch date
2022-05-06
Launch site
AFETR
Launch vehicle
Mass (kg)
RCS (m²)

Purposes: comms

External: N2YO · Heavens-Above · Gunter

§ Orbital elements

Epoch: 2026-05-25T02:23:23.781120Z

Period
95.44 min
Inclination
53.2150°
Eccentricity
0.0001408
Mean motion
15.08844694 rev/d
Perigee alt
538.8 km
Apogee alt
540.7 km
Semi-major
6,917.9 km
B*
3.0076e-5
RAAN
65.8996°
Arg perigee
95.0579°
Mean anomaly
265.0574°
Rev number
22,393

§ Raw data

STARLINK-39071 52501U 22049BC  26145.09958080  .00000191  00000+0  30076-4 0  99972 52501  53.2150  65.8996 0001408  95.0579 265.0574 15.08844694223939

JSON: /api/v1/satellites/52501 · /tle

For live sub-satellite position, see the globe view (requires WebGL).

§ Visibility from observer

Set your observer location to see the next 7 days of passes ≥ 10°. The values pass through the URL so the page stays shareable.

No JS? Fill the form by hand. The geolocation button needs JavaScript.